Flag for Monaco Weather past 2 weeks in Monaco, Monaco

Now
77 °F

Partly sunny.


Feels Like: 79 °F
Forecast: 58 / 76 °F
Wind: 7 mph from South

Location: Nice Airport

Current Time: Sep 3, 2015 at 3:57:12 PM

Latest Report: Sep 3, 2015 at 3:30 PM


Visibility: N/A

Pressure: 29.89 "Hg

Humidity: 65%

Dew point: 64 °F

Location of MonacoLocation

Historic Weather in Monaco — Graph

°F

Monaco temperature yesterday

Maximum temperature yesterday: 81 °F (at 4:30 PM)
Minimum temperature yesterday: 70 °F (at 5:00 AM)
Average temperature yesterday: 76 °F

Past Weeks' High & Low Weather Summary

 TemperatureHumidityPressure
High84 °F (Aug 29, 11:00 AM)88% (Aug 24, 11:00 PM)30.18 "Hg (Aug 24, 11:00 PM)
Low64 °F (Aug 25, 7:30 AM)37% (Aug 29, 11:00 AM)29.80 "Hg (Aug 23, 7:30 PM)
Average75 °F62%30.01 "Hg
* Reported Aug 19 2:00 PM — Sep 3 2:00 PM, Monaco, Weather by CustomWeather, © 2015

Note: Actual official high and low records may vary slightly from our data, if they occured in-between our weather recording intervals... More about our weather records

Advertising

Monaco weather history for previous 24 hours

 ConditionsComfort  
Time TempWeatherWind HumidityBarometerVisibility
2:00 PM
Thu, Sep 3
77 °FPartly sunny.3 mph61%29.89 "HgN/A
1:30 PM79 °FPartly sunny.3 mph58%29.89 "HgN/A
1:00 PM75 °FPartly sunny.2 mph57%29.89 "HgN/A
12:30 PM75 °FBroken clouds.5 mph61%29.89 "HgN/A
12:00 PM75 °FBroken clouds.6 mph57%29.89 "HgN/A
11:30 AM75 °FPartly sunny.6 mph54%29.89 "HgN/A
11:00 AM77 °FPartly sunny.2 mph57%29.89 "HgN/A
10:30 AM77 °FPartly sunny.2 mph54%29.89 "HgN/A
10:00 AM75 °FPartly sunny.7 mph47%29.86 "HgN/A
9:30 AM73 °FPartly sunny.7 mph50%29.89 "HgN/A
9:00 AM72 °FPassing clouds.9 mph53%29.86 "HgN/A
8:30 AM70 °FSunny.9 mph57%29.86 "Hg10 mi
8:00 AM68 °FSunny.9 mph60%29.86 "Hg10 mi
7:30 AM68 °FPassing clouds.10 mph56%29.86 "HgN/A
7:00 AM68 °FPassing clouds.7 mph60%29.86 "HgN/A
6:30 AM68 °FPassing clouds.7 mph60%29.86 "HgN/A
5:30 AM68 °FPassing clouds.10 mph60%29.86 "HgN/A
5:00 AM68 °FPassing clouds.9 mph64%29.86 "HgN/A
4:30 AM70 °FClear.8 mph60%29.86 "Hg10 mi
4:00 AM70 °FClear.5 mph60%29.86 "Hg10 mi
3:30 AM70 °FPassing clouds.10 mph60%29.86 "HgN/A
3:00 AM70 °FPassing clouds.10 mph60%29.86 "HgN/A
2:30 AM70 °FPassing clouds.9 mph60%29.86 "HgN/A
2:00 AM72 °FPassing clouds.7 mph61%29.86 "HgN/A
1:30 AM72 °FPassing clouds.10 mph61%29.86 "HgN/A
1:00 AM72 °FPassing clouds.10 mph61%29.86 "HgN/A
11:30 PM
Wed, Sep 2
75 °FClear.12 mph74%29.83 "Hg10 mi
11:00 PM75 °FClear.9 mph74%29.86 "Hg10 mi
10:30 PM77 °FClear.9 mph69%29.86 "Hg10 mi
10:00 PM77 °FClear.12 mph69%29.83 "Hg10 mi
9:30 PM77 °FClear.14 mph69%29.83 "Hg10 mi
9:00 PM77 °FSunny.14 mph69%29.83 "Hg10 mi
8:30 PM77 °FSunny.15 mph69%29.83 "Hg10 mi
8:00 PM77 °FSunny.16 mph69%29.83 "Hg10 mi
7:30 PM79 °FPassing clouds.15 mph61%29.83 "HgN/A
7:00 PM79 °FPassing clouds.15 mph65%29.83 "HgN/A
6:30 PM81 °FScattered clouds.12 mph62%29.83 "HgN/A
6:00 PM81 °FScattered clouds.6 mph62%29.83 "HgN/A
5:30 PM79 °FScattered clouds.3 mph61%29.83 "HgN/A
5:00 PM81 °FPassing clouds.6 mph54%29.83 "HgN/A
4:30 PM81 °FScattered clouds.3 mph58%29.86 "HgN/A
4:00 PM79 °FScattered clouds.6 mph61%29.86 "HgN/A
3:30 PM79 °FScattered clouds.9 mph61%29.86 "HgN/A
3:00 PM79 °FPassing clouds.7 mph65%29.83 "HgN/A
Weather by CustomWeather, © 2015

See weather overviewHow to use our weather pages